This is the latest recevied weather packets stored in our database for station/object KA8OAD-10. If no packets are shown the sender has not sent any weather packets the latest 10 day(s).
| Time | Temp. | Humidity | Pressure | Rain* | Wind** | Luminosity | Snow |
|---|---|---|---|---|---|---|---|
| 1777941750 | 20° C | 57% | 1003.3 hPa | 0 mm | - | 0 W/m² | - |
| 1777941153 | 20° C | 56% | 1003 hPa | 0 mm | - | 0 W/m² | - |
| 1777940853 | 20° C | 56% | 1003 hPa | 0 mm | - | 0 W/m² | - |
| 1777940252 | 20° C | 56% | 1002.8 hPa | 0 mm | - | 0 W/m² | - |
| 1777939951 | 20.56° C | 56% | 1002.6 hPa | 0 mm | - | 0 W/m² | - |
| 1777939650 | 20.56° C | 55% | 1002.5 hPa | 0 mm | - | 0 W/m² | - |
| 1777939349 | 20.56° C | 55% | 1002.4 hPa | 0 mm | - | 0 W/m² | - |
| 1777939053 | 20.56° C | 55% | 1002.4 hPa | 0 mm | - | 5 W/m² | - |
| 1777938751 | 20.56° C | 54% | 1002.4 hPa | 0 mm | - | 5 W/m² | - |
| 1777938451 | 21.11° C | 54% | 1002.4 hPa | 0 mm | - | 9 W/m² | - |
| 1777938150 | 21.11° C | 53% | 1002.4 hPa | 0 mm | - | 18 W/m² | - |
| 1777937550 | 21.11° C | 54% | 1002.4 hPa | 0 mm | - | 39 W/m² | - |
| 1777937249 | 21.11° C | 53% | 1002.2 hPa | 0 mm | - | 26 W/m² | - |
| 1777936653 | 21.11° C | 52% | 1002.3 hPa | 0 mm | - | 12 W/m² | - |
| 1777936352 | 21.11° C | 51% | 1002.5 hPa | 0 mm | - | 14 W/m² | - |
| 1777936052 | 21.11° C | 52% | 1002.4 hPa | 0 mm | - | 30 W/m² | - |
| 1777935750 | 21.11° C | 53% | 1002.5 hPa | 0 mm | - | 37 W/m² | - |
| 1777934852 | 21.11° C | 54% | 1002.6 hPa | 0 mm | - | 56 W/m² | - |
| 1777934552 | 21.11° C | 55% | 1002.8 hPa | 0 mm | - | 46 W/m² | - |
| 1777933650 | 21.11° C | 58% | 1002.9 hPa | 0 mm | - | 100 W/m² | - |
| 1777933053 | 21.67° C | 53% | 1002.9 hPa | 0 mm | - | 46 W/m² | - |
| 1777932752 | 21.67° C | 53% | 1002.9 hPa | 0 mm | - | 88 W/m² | - |
| 1777932452 | 21.67° C | 52% | 1002.9 hPa | 0 mm | - | 28 W/m² | - |
| 1777932151 | 21.67° C | 52% | 1002.9 hPa | 0 mm | - | 18 W/m² | - |
| 1777931851 | 21.67° C | 53% | 1003.1 hPa | 0 mm | - | 69 W/m² | - |
* Rain latest hour (hover to see other rain measurements)
** Current wind speed in m/s (hover to see current wind gust speed)